Location: Newark
(20.1200°S, 168.9600°E)
Time: 18:54:18
(UTC+00:00)

Hubble Space Telescope - Pass Details

Date: 01 December 2019
Orbit: 536 x 540 km, 28.5° (Epoch: 06 December)

Event Time Altitude Azimuth Distance (km) Brightness Sun altitude
Exits shadow 16:43:19 - 238° (WSW) 1,997 3.4 -15.9°
Reaches altitude 10° 16:43:51 10° 235° (SW) 1,802 3.2 -15.8°
Maximum altitude 16:47:44 37° 167° (SSE) 850 2.2 -15.0°
Drops below altitude 10° 16:51:37 10° 98° (E) 1,797 4.6 -14.2°
Sets 16:54:00 0° 89° (E) 2,686 5.4 -13.7°
